loading
|

STARLINK-32253, 60733

Orbit data source: Space-Track

STARLINK-32253, 60733 is a payload satellite owned by SpaceX/Seattle (US) in LEO that was launched on Wed, 28 Aug 2024 UTC via an FALCON 9 launch vehicle from the Air Force Eastern Test Range (AFETR). Payloads include a variety of satellites, spacecraft, and rockets equipped with specific instruments for various scientific and technological missions. These include communications satellites like Starlink; space stations such as the ISS; scientific satellites like the Hubble; Earth observation satellites from companies like Planet Labs, Umbra, and HawkEye 360; GPS; miniature CubeSats for education and research; and military/defense satellites.

Loading next visibility...
Loading greatness...
STARLINK-32253 details
Identifier
60733, 2024-152P
Orbit
LEO
Last TLE update9 hours ago
Origin
Flag of USSpaceX/Seattle (US)
ManufacturerSpaceX/Seattle
Mission statusOperational
MissionUnknown
Bus & MotorSTARLINK V2M, Unknown motor
Mass750 kg wet, ~700 kg dry
Launch date (UTC)
2024-08-28 (3 weeks ago)
Launch vehicle
FALCON 9
Launch site
Air Force Eastern Test Range (AFETR)
Object type
Payload
Rocket body
Debris
Radar Cross SectionLarge (>1 m²)

Expand to show TLE details & history

TLE from 9 hours ago
0 STARLINK-32253
1 60733U 24152P   24261.58335648 -.01768599  00000-0 -26988-1 0  9991
2 60733  53.1589 249.5435 0000957  82.8808 176.9803 15.57011556  4418
Epoch: 2024-09-17T14:00Z
Definitive object data (Epoch: 2024-09-17T14:00:01.999Z)
Latitude-52.14153°
Longitude-64.02918°
Altitude415.038 km
Speed7.661 km/s
True Right ascension09h 31m 54s
True Declination-51° 57' 59"
Sunlit
Object was in daylight at TLE epoch
Predictive object data (real-time)
Latitude-38.77526°
Longitude-102.53589°
Altitude413.867 km
Speed7.662 km/s
Apparent Right ascension05h 30m 58s
Apparent Declination-41° 24' 45"
Sunlit
Object is in daylight
Predictive observer data (real-time)
Local Sidereal Time15:56:31
Azimuth257.534° W
Elevation-72.082°
Doppler factor1
Orbital elements
Apogee397.219 km
Perigee395.923 km
Semi-major axis6,774.708 km
Eccentricity0.0000957
Inclination53.1589°
RAAN249.5435°
Arg. of periapsis82.8808°
True anomaly176.98088°
Mean anomaly176.9803°
Eccentric anomaly176.98059°
Mean motion3.89231 °/min
BSTAR-0.026988
Period92.49 mins
No data available

STARLINK-32253 Visibility forecast

Observer location: 39.9160978°, -105.1181434

STARLINK-32253 is not visible in the next 10 days
Span
Click to sort rows by Start time (UTC) header in descending order
Start Az.
Max El. time (UTC)
Max El. Az.
Max El.
End time (UTC)
End Az.